N13151 KBED-KACK

Flight info

Callsign N13151
Flight time 0h 49m
Altitude VFR/055
Route
Aircraft C172/L-DOV/C

Departure

Time 2026-04-22 01:01
Airport Laurence G Hanscom Field (KBED)

Arrival

Time 2026-04-22 01:51
Airport Nantucket Memorial Airport (KACK)
Time Latitude Longitude Altitude Speed Heading
2026-04-22 00:51 42.46550 -71.27954 130 ft 0 kts 188°
2026-04-22 00:52 42.46543 -71.27957 126 ft 7 kts 197°
2026-04-22 00:52 42.46520 -71.27976 128 ft 5 kts 18°
2026-04-22 00:53 42.46547 -71.27952 128 ft 5 kts 36°
2026-04-22 00:53 42.46590 -71.27918 126 ft 8 kts 19°
2026-04-22 00:53 42.46648 -71.27894 128 ft 9 kts 10°
2026-04-22 00:53 42.46675 -71.27930 127 ft 5 kts 245°
2026-04-22 00:54 42.46662 -71.27883 127 ft 11 kts 71°
2026-04-22 00:54 42.46718 -71.27867 123 ft 10 kts
2026-04-22 00:54 42.46769 -71.27917 125 ft 11 kts 285°
2026-04-22 00:54 42.46778 -71.28039 127 ft 15 kts 281°
2026-04-22 00:55 42.46794 -71.28187 129 ft 17 kts 277°
2026-04-22 00:55 42.46808 -71.28335 130 ft 15 kts 277°
2026-04-22 00:55 42.46830 -71.28567 133 ft 10 kts 278°
2026-04-22 00:56 42.46835 -71.28626 133 ft 9 kts 276°
2026-04-22 00:56 42.46842 -71.28707 133 ft 8 kts 278°
2026-04-22 00:56 42.46850 -71.28783 132 ft 8 kts 277°
2026-04-22 00:56 42.46856 -71.28862 133 ft 9 kts 279°
2026-04-22 00:57 42.46865 -71.28952 133 ft 11 kts 277°
2026-04-22 00:57 42.46875 -71.29066 133 ft 14 kts 276°
2026-04-22 00:57 42.46885 -71.29213 131 ft 18 kts 287°
2026-04-22 00:57 42.46905 -71.29382 133 ft 17 kts 276°
2026-04-22 00:58 42.46918 -71.29525 135 ft 14 kts 277°
2026-04-22 00:58 42.46929 -71.29648 134 ft 13 kts 277°
2026-04-22 00:58 42.46940 -71.29760 134 ft 11 kts 277°
2026-04-22 00:58 42.46948 -71.29847 136 ft 8 kts 278°
2026-04-22 00:59 42.46955 -71.29926 137 ft 9 kts 276°
2026-04-22 00:59 42.46970 -71.30006 137 ft 6 kts 299°
2026-04-22 00:59 42.46993 -71.30032 137 ft 4 kts 342°
2026-04-22 00:59 42.47026 -71.30032 137 ft 10 kts
2026-04-22 01:00 42.47118 -71.30025 137 ft 12 kts 358°
2026-04-22 01:00 42.47171 -71.29996 138 ft 7 kts 76°
2026-04-22 01:00 42.47169 -71.29874 139 ft 28 kts 98°
2026-04-22 01:00 42.47115 -71.29352 148 ft 78 kts 104°
2026-04-22 01:01 42.47069 -71.28559 299 ft 91 kts 106°
2026-04-22 01:01 42.46969 -71.27695 529 ft 92 kts 105°
2026-04-22 01:01 42.46931 -71.26899 840 ft 86 kts 98°
2026-04-22 01:01 42.46843 -71.26092 1060 ft 84 kts 125°
2026-04-22 01:02 42.46436 -71.25611 1350 ft 74 kts 170°
2026-04-22 01:02 42.45944 -71.25519 1627 ft 74 kts 167°
2026-04-22 01:02 42.45455 -71.25149 1773 ft 85 kts 164°
2026-04-22 01:02 42.44932 -71.24843 2052 ft 80 kts 161°
2026-04-22 01:03 42.44408 -71.24519 2250 ft 84 kts 165°
2026-04-22 01:03 42.43893 -71.24194 2496 ft 83 kts 167°
2026-04-22 01:03 42.43322 -71.23867 2543 ft 92 kts 168°
2026-04-22 01:03 42.42692 -71.23527 2532 ft 98 kts 166°
2026-04-22 01:04 42.42071 -71.23140 2585 ft 99 kts 161°
2026-04-22 01:04 42.41445 -71.22719 2570 ft 103 kts 163°
2026-04-22 01:04 42.40806 -71.22315 2605 ft 99 kts 168°
2026-04-22 01:04 42.40168 -71.21977 2595 ft 99 kts 166°
2026-04-22 01:05 42.39529 -71.21609 2572 ft 98 kts 166°
2026-04-22 01:05 42.38909 -71.21231 2540 ft 99 kts 165°
2026-04-22 01:05 42.38283 -71.20883 2500 ft 97 kts 167°
2026-04-22 01:05 42.37655 -71.20488 2443 ft 101 kts 161°
2026-04-22 01:06 42.37036 -71.20057 2458 ft 99 kts 165°
2026-04-22 01:06 42.36403 -71.19653 2460 ft 100 kts 165°
2026-04-22 01:06 42.35780 -71.19256 2599 ft 97 kts 164°
2026-04-22 01:06 42.35188 -71.18876 2873 ft 91 kts 164°
2026-04-22 01:07 42.34620 -71.18520 3054 ft 91 kts 167°
2026-04-22 01:07 42.34043 -71.18213 3313 ft 85 kts 170°
2026-04-22 01:07 42.33508 -71.17883 3526 ft 89 kts 166°
2026-04-22 01:07 42.32906 -71.17535 3620 ft 96 kts 166°
2026-04-22 01:08 42.32280 -71.17166 3614 ft 100 kts 165°
2026-04-22 01:08 42.31633 -71.16780 3621 ft 102 kts 165°
2026-04-22 01:08 42.30996 -71.16416 3615 ft 102 kts 166°
2026-04-22 01:08 42.30336 -71.16062 3630 ft 101 kts 166°
2026-04-22 01:09 42.29642 -71.15701 3530 ft 111 kts 167°
2026-04-22 01:09 42.28960 -71.15319 3603 ft 104 kts 165°
2026-04-22 01:09 42.28268 -71.14920 3546 ft 109 kts 165°
2026-04-22 01:09 42.27573 -71.14533 3557 ft 107 kts 166°
2026-04-22 01:10 42.26881 -71.14150 3556 ft 107 kts 166°
2026-04-22 01:10 42.26189 -71.13772 3561 ft 108 kts 166°
2026-04-22 01:10 42.25496 -71.13392 3559 ft 107 kts 166°
2026-04-22 01:10 42.24811 -71.13014 3557 ft 106 kts 166°
2026-04-22 01:11 42.24116 -71.12632 3562 ft 109 kts 166°
2026-04-22 01:11 42.23402 -71.12247 3564 ft 112 kts 166°
2026-04-22 01:11 42.22673 -71.11852 3562 ft 113 kts 166°
2026-04-22 01:11 42.21939 -71.11456 3560 ft 114 kts 166°
2026-04-22 01:12 42.21203 -71.11066 3562 ft 114 kts 166°
2026-04-22 01:12 42.20487 -71.10684 3684 ft 106 kts 166°
2026-04-22 01:12 42.19834 -71.10316 3938 ft 99 kts 165°
2026-04-22 01:12 42.19226 -71.09963 4199 ft 92 kts 165°
2026-04-22 01:13 42.18657 -71.09627 4449 ft 88 kts 165°
2026-04-22 01:13 42.18083 -71.09319 4648 ft 88 kts 174°
2026-04-22 01:13 42.17503 -71.09028 4846 ft 93 kts 151°
2026-04-22 01:13 42.17096 -71.08326 5045 ft 99 kts 118°
2026-04-22 01:14 42.16785 -71.07499 5243 ft 99 kts 121°
2026-04-22 01:14 42.16460 -71.06670 5436 ft 100 kts 121°
2026-04-22 01:14 42.16121 -71.05829 5554 ft 107 kts 122°
2026-04-22 01:14 42.15732 -71.04896 5563 ft 120 kts 122°
2026-04-22 01:15 42.15307 -71.03886 5565 ft 127 kts 122°
2026-04-22 01:15 42.14861 -71.02836 5564 ft 129 kts 122°
2026-04-22 01:15 42.14417 -71.01792 5564 ft 128 kts 122°
2026-04-22 01:15 42.13978 -71.00761 5562 ft 128 kts 122°
2026-04-22 01:16 42.13534 -70.99716 5564 ft 128 kts 122°
2026-04-22 01:16 42.13089 -70.98673 5563 ft 128 kts 122°
2026-04-22 01:16 42.12646 -70.97633 5561 ft 128 kts 122°
2026-04-22 01:16 42.12201 -70.96587 5562 ft 128 kts 122°
2026-04-22 01:17 42.11759 -70.95551 5560 ft 128 kts 122°
2026-04-22 01:17 42.11317 -70.94512 5560 ft 128 kts 122°
2026-04-22 01:17 42.10874 -70.93477 5560 ft 127 kts 122°
2026-04-22 01:17 42.10601 -70.92368 5565 ft 127 kts 100°
2026-04-22 01:18 42.10266 -70.91284 5569 ft 126 kts 134°
2026-04-22 01:18 42.09605 -70.90526 5573 ft 125 kts 146°
2026-04-22 01:18 42.08918 -70.89806 5574 ft 125 kts 146°
2026-04-22 01:18 42.08225 -70.89092 5576 ft 125 kts 147°
2026-04-22 01:19 42.07532 -70.88383 5578 ft 125 kts 147°
2026-04-22 01:19 42.06837 -70.87675 5578 ft 126 kts 147°
2026-04-22 01:19 42.06139 -70.86964 5578 ft 125 kts 147°
2026-04-22 01:19 42.05443 -70.86255 5579 ft 125 kts 147°
2026-04-22 01:20 42.04748 -70.85548 5580 ft 125 kts 147°
2026-04-22 01:20 42.04051 -70.84840 5579 ft 125 kts 147°
2026-04-22 01:20 42.03354 -70.84131 5579 ft 125 kts 147°
2026-04-22 01:20 42.02659 -70.83424 5577 ft 125 kts 147°
2026-04-22 01:21 42.01964 -70.82717 5567 ft 125 kts 147°
2026-04-22 01:21 42.01276 -70.82018 5570 ft 126 kts 147°
2026-04-22 01:21 42.00575 -70.81307 5569 ft 126 kts 146°
2026-04-22 01:21 41.99878 -70.80599 5569 ft 126 kts 146°
2026-04-22 01:22 41.99177 -70.79887 5568 ft 126 kts 147°
2026-04-22 01:22 41.98476 -70.79176 5569 ft 126 kts 146°
2026-04-22 01:22 41.97777 -70.78466 5572 ft 126 kts 146°
2026-04-22 01:22 41.97077 -70.77756 5570 ft 126 kts 146°
2026-04-22 01:23 41.96377 -70.77047 5570 ft 126 kts 146°
2026-04-22 01:23 41.95676 -70.76336 5570 ft 126 kts 146°
2026-04-22 01:23 41.94977 -70.75627 5568 ft 126 kts 146°
2026-04-22 01:23 41.94277 -70.74919 5568 ft 126 kts 146°
2026-04-22 01:24 41.93580 -70.74212 5566 ft 126 kts 146°
2026-04-22 01:24 41.92881 -70.73504 5567 ft 126 kts 146°
2026-04-22 01:24 41.92191 -70.72806 5568 ft 126 kts 146°
2026-04-22 01:24 41.91493 -70.72100 5567 ft 126 kts 146°
2026-04-22 01:25 41.90793 -70.71392 5568 ft 126 kts 146°
2026-04-22 01:25 41.90094 -70.70684 5566 ft 126 kts 146°
2026-04-22 01:25 41.89394 -70.69977 5567 ft 126 kts 146°
2026-04-22 01:25 41.88695 -70.69271 5568 ft 126 kts 146°
2026-04-22 01:26 41.87996 -70.68563 5567 ft 126 kts 145°
2026-04-22 01:26 41.87293 -70.67854 5566 ft 126 kts 145°
2026-04-22 01:26 41.86590 -70.67143 5567 ft 126 kts 145°
2026-04-22 01:26 41.85889 -70.66435 5566 ft 126 kts 145°
2026-04-22 01:27 41.85188 -70.65727 5567 ft 126 kts 145°
2026-04-22 01:27 41.84496 -70.65029 5566 ft 126 kts 145°
2026-04-22 01:27 41.83794 -70.64321 5565 ft 126 kts 145°
2026-04-22 01:27 41.83093 -70.63614 5566 ft 126 kts 145°
2026-04-22 01:28 41.82395 -70.62910 5565 ft 126 kts 145°
2026-04-22 01:28 41.81695 -70.62204 5567 ft 126 kts 145°
2026-04-22 01:28 41.80993 -70.61497 5565 ft 126 kts 145°
2026-04-22 01:28 41.80293 -70.60792 5566 ft 126 kts 145°
2026-04-22 01:29 41.79593 -70.60087 5566 ft 126 kts 145°
2026-04-22 01:29 41.78890 -70.59379 5597 ft 126 kts 144°
2026-04-22 01:29 41.78188 -70.58672 5596 ft 126 kts 144°
2026-04-22 01:29 41.77488 -70.57968 5598 ft 126 kts 144°
2026-04-22 01:30 41.76787 -70.57262 5601 ft 126 kts 144°
2026-04-22 01:30 41.76084 -70.56556 5600 ft 126 kts 144°
2026-04-22 01:30 41.75390 -70.55858 5603 ft 127 kts 144°
2026-04-22 01:30 41.74682 -70.55147 5592 ft 128 kts 144°
2026-04-22 01:31 41.73973 -70.54434 5587 ft 127 kts 144°
2026-04-22 01:31 41.73267 -70.53725 5589 ft 127 kts 144°
2026-04-22 01:31 41.72563 -70.53017 5586 ft 126 kts 144°
2026-04-22 01:31 41.71860 -70.52311 5588 ft 126 kts 144°
2026-04-22 01:32 41.71157 -70.51605 5588 ft 127 kts 144°
2026-04-22 01:32 41.70453 -70.50898 5589 ft 126 kts 144°
2026-04-22 01:32 41.69736 -70.50181 5518 ft 131 kts 144°
2026-04-22 01:32 41.69010 -70.49453 5450 ft 133 kts 144°
2026-04-22 01:33 41.68251 -70.48702 5200 ft 137 kts 145°
2026-04-22 01:33 41.67487 -70.47942 4933 ft 136 kts 145°
2026-04-22 01:33 41.66734 -70.47190 4672 ft 133 kts 146°
2026-04-22 01:33 41.66001 -70.46458 4408 ft 130 kts 146°
2026-04-22 01:34 41.65281 -70.45737 4142 ft 128 kts 146°
2026-04-22 01:34 41.64580 -70.45035 3879 ft 127 kts 147°
2026-04-22 01:34 41.63869 -70.44323 3621 ft 126 kts 147°
2026-04-22 01:34 41.63181 -70.43635 3351 ft 124 kts 148°
2026-04-22 01:35 41.62496 -70.42949 3088 ft 122 kts 148°
2026-04-22 01:35 41.61851 -70.42298 3006 ft 108 kts 148°
2026-04-22 01:35 41.61285 -70.41725 3001 ft 98 kts 148°
2026-04-22 01:35 41.60729 -70.41163 2996 ft 103 kts 148°
2026-04-22 01:36 41.60142 -70.40573 3004 ft 108 kts 148°
2026-04-22 01:36 41.59523 -70.39974 3013 ft 110 kts 157°
2026-04-22 01:36 41.58799 -70.39992 3016 ft 107 kts 204°
2026-04-22 01:36 41.58102 -70.40361 3015 ft 109 kts 204°
2026-04-22 01:37 41.57376 -70.40657 3012 ft 110 kts 188°
2026-04-22 01:37 41.56620 -70.40436 3004 ft 115 kts 156°
2026-04-22 01:37 41.55957 -70.39828 3006 ft 115 kts 150°
2026-04-22 01:37 41.55296 -70.39219 3005 ft 116 kts 150°
2026-04-22 01:38 41.54635 -70.38608 2981 ft 116 kts 150°
2026-04-22 01:38 41.53976 -70.37997 2983 ft 115 kts 150°
2026-04-22 01:38 41.53324 -70.37394 2984 ft 116 kts 150°
2026-04-22 01:38 41.52665 -70.36782 2981 ft 115 kts 150°
2026-04-22 01:39 41.52006 -70.36172 2988 ft 115 kts 150°
2026-04-22 01:39 41.51344 -70.35559 2983 ft 116 kts 149°
2026-04-22 01:39 41.50683 -70.34946 2986 ft 116 kts 150°
2026-04-22 01:39 41.50022 -70.34334 2983 ft 116 kts 149°
2026-04-22 01:40 41.49360 -70.33722 2986 ft 116 kts 149°
2026-04-22 01:40 41.48696 -70.33107 2984 ft 116 kts 149°
2026-04-22 01:40 41.48032 -70.32492 2987 ft 116 kts 149°
2026-04-22 01:40 41.47373 -70.31883 2989 ft 117 kts 149°
2026-04-22 01:41 41.46691 -70.31255 2880 ft 122 kts 150°
2026-04-22 01:41 41.45984 -70.30609 2664 ft 124 kts 149°
2026-04-22 01:41 41.45271 -70.29955 2435 ft 122 kts 149°
2026-04-22 01:41 41.44581 -70.29322 2188 ft 118 kts 149°
2026-04-22 01:42 41.43902 -70.28692 1990 ft 118 kts 148°
2026-04-22 01:42 41.43254 -70.28087 1984 ft 111 kts 148°
2026-04-22 01:42 41.42843 -70.27705 1986 ft 107 kts 148°
2026-04-22 01:42 41.42251 -70.27154 1994 ft 101 kts 148°
2026-04-22 01:43 41.41682 -70.26628 1988 ft 98 kts 149°
2026-04-22 01:43 41.41117 -70.26105 1997 ft 100 kts 149°
2026-04-22 01:43 41.40544 -70.25576 1996 ft 100 kts 149°
2026-04-22 01:43 41.40010 -70.24977 1994 ft 101 kts 138°
2026-04-22 01:44 41.39515 -70.24309 1995 ft 102 kts 139°
2026-04-22 01:44 41.39017 -70.23642 1993 ft 101 kts 139°
2026-04-22 01:44 41.38521 -70.22979 2002 ft 101 kts 139°
2026-04-22 01:44 41.38020 -70.22314 1996 ft 102 kts 139°
2026-04-22 01:45 41.37520 -70.21647 2003 ft 102 kts 139°
2026-04-22 01:45 41.37016 -70.20977 2004 ft 103 kts 139°
2026-04-22 01:45 41.36514 -70.20309 2002 ft 103 kts 139°
2026-04-22 01:45 41.36008 -70.19634 2006 ft 103 kts 138°
2026-04-22 01:46 41.35500 -70.18949 2019 ft 104 kts 137°
2026-04-22 01:46 41.35010 -70.18264 2049 ft 99 kts 137°
2026-04-22 01:46 41.34562 -70.17619 2029 ft 97 kts 139°
2026-04-22 01:46 41.34071 -70.16982 2022 ft 99 kts 139°
2026-04-22 01:47 41.33596 -70.16322 2016 ft 99 kts 138°
2026-04-22 01:47 41.33105 -70.15666 2016 ft 101 kts 140°
2026-04-22 01:47 41.32603 -70.15049 1980 ft 96 kts 144°
2026-04-22 01:47 41.32083 -70.14450 1814 ft 101 kts 140°
2026-04-22 01:48 41.31606 -70.13779 1725 ft 99 kts 137°
2026-04-22 01:48 41.31126 -70.13130 1621 ft 99 kts 140°
2026-04-22 01:48 41.30648 -70.12486 1520 ft 99 kts 137°
2026-04-22 01:48 41.30170 -70.11834 1437 ft 97 kts 137°
2026-04-22 01:49 41.29685 -70.11194 1331 ft 98 kts 138°
2026-04-22 01:49 41.29205 -70.10542 1192 ft 99 kts 137°
2026-04-22 01:49 41.28701 -70.09909 1014 ft 103 kts 140°
2026-04-22 01:49 41.28204 -70.09215 845 ft 104 kts 137°
2026-04-22 01:50 41.27667 -70.08571 679 ft 103 kts 138°
2026-04-22 01:50 41.27179 -70.07884 507 ft 101 kts 136°
2026-04-22 01:50 41.26695 -70.07249 396 ft 96 kts 139°
2026-04-22 01:50 41.26254 -70.06682 228 ft 81 kts 137°
2026-04-22 01:51 41.25891 -70.06200 105 ft 67 kts 138°
2026-04-22 01:51 41.25613 -70.05823 54 ft 45 kts 137°
2026-04-22 01:51 41.25447 -70.05614 48 ft 22 kts 135°
2026-04-22 01:51 41.25355 -70.05490 48 ft 19 kts 136°
2026-04-22 01:52 41.25227 -70.05320 45 ft 31 kts 135°
2026-04-22 01:52 41.25111 -70.05168 44 ft 17 kts 135°
2026-04-22 01:52 41.25031 -70.05147 44 ft 12 kts 261°
2026-04-22 01:52 41.25051 -70.05248 44 ft 11 kts 289°
2026-04-22 01:53 41.25053 -70.05256 44 ft 0 kts 289°